Hourly Weather Adampol

Today, 23 April, Friday

Time Temperature Precipitation Wind Pressure Humidity
00:00 +1°C° 0 mm 3 mps 745 mmHg 78%
01:00 0°C° 0 mm 4 mps 745 mmHg 80%
02:00 0°C° 0 mm 4 mps 745 mmHg 81%
03:00 -1°C° 0 mm 4 mps 745 mmHg 80%
04:00 -1°C° 0 mm 4 mps 745 mmHg 79%
05:00 -1°C° 0 mm 4 mps 745 mmHg 79%
06:00 0°C° 0 mm 4 mps 745 mmHg 75%
07:00 +1°C° 0 mm 5 mps 746 mmHg 71%
08:00 +3°C° 0 mm 5 mps 746 mmHg 67%
09:00 +3°C° 0.1 mm 5 mps 746 mmHg 63%
10:00 +5°C° 0.1 mm 5 mps 746 mmHg 59%
11:00 +6°C° 0.1 mm 5 mps 746 mmHg 55%
12:00 +5°C° 0.2 mm 6 mps 746 mmHg 51%
13:00 +7°C° 0.2 mm 6 mps 746 mmHg 47%
14:00 +8°C° 0.2 mm 6 mps 746 mmHg 43%
15:00 +7°C° 0.2 mm 6 mps 746 mmHg 49%
16:00 +7°C° 0.2 mm 6 mps 746 mmHg 55%
17:00 +5°C° 0.2 mm 6 mps 746 mmHg 60%
18:00 +5°C° 0.2 mm 5 mps 746 mmHg 66%
19:00 +4°C° 0.2 mm 4 mps 747 mmHg 73%
20:00 +3°C° 0.2 mm 3 mps 747 mmHg 79%
21:00 +2°C° 0 mm 3 mps 747 mmHg 77%
22:00 +2°C° 0 mm 3 mps 747 mmHg 76%
23:00 +2°C° 0 mm 3 mps 748 mmHg 75%

Tomorrow, 24 April, Saturday

Time Temperature Precipitation Wind Pressure Humidity
00:00 +1°C° 0 mm 3 mps 748 mmHg 78%
01:00 0°C° 0 mm 3 mps 748 mmHg 82%
02:00 -1°C° 0 mm 3 mps 748 mmHg 85%
03:00 -1°C° 0 mm 3 mps 748 mmHg 87%
04:00 -1°C° 0 mm 3 mps 748 mmHg 88%
05:00 -1°C° 0 mm 3 mps 748 mmHg 90%
06:00 0°C° 0 mm 3 mps 748 mmHg 82%
07:00 0°C° 0 mm 4 mps 748 mmHg 73%
08:00 +3°C° 0 mm 4 mps 748 mmHg 65%
09:00 +4°C° 0 mm 4 mps 748 mmHg 57%
10:00 +5°C° 0 mm 5 mps 748 mmHg 50%
11:00 +7°C° 0 mm 5 mps 748 mmHg 42%
12:00 +7°C° 0 mm 5 mps 748 mmHg 41%
13:00 +8°C° 0 mm 5 mps 748 mmHg 39%
14:00 +8°C° 0 mm 5 mps 748 mmHg 37%
15:00 +8°C° 0 mm 5 mps 747 mmHg 38%
16:00 +8°C° 0 mm 5 mps 747 mmHg 39%
17:00 +8°C° 0 mm 4 mps 747 mmHg 40%
18:00 +7°C° 0 mm 4 mps 747 mmHg 46%
19:00 +5°C° 0 mm 3 mps 747 mmHg 52%
20:00 +5°C° 0 mm 2 mps 747 mmHg 58%
21:00 +5°C° 0 mm 2 mps 747 mmHg 62%
22:00 +4°C° 0 mm 3 mps 746 mmHg 67%
23:00 +4°C° 0 mm 4 mps 746 mmHg 71%

Day after tomorrow, 25 April, Sunday

Time Temperature Precipitation Wind Pressure Humidity
00:00 +1°C° 0.1 mm 4 mps 746 mmHg 77%
01:00 +1°C° 0.1 mm 3 mps 747 mmHg 82%
02:00 0°C° 0.1 mm 3 mps 747 mmHg 87%
03:00 -1°C° 0 mm 3 mps 747 mmHg 88%
04:00 -2°C° 0 mm 3 mps 747 mmHg 88%
05:00 -4°C° 0 mm 3 mps 747 mmHg 89%
06:00 -1°C° 0 mm 3 mps 748 mmHg 80%
07:00 -1°C° 0 mm 4 mps 748 mmHg 70%
08:00 0°C° 0 mm 4 mps 748 mmHg 61%
09:00 +1°C° 0 mm 4 mps 748 mmHg 55%
10:00 +2°C° 0 mm 5 mps 748 mmHg 49%
11:00 +5°C° 0 mm 5 mps 748 mmHg 43%
12:00 +5°C° 0.1 mm 5 mps 748 mmHg 43%
13:00 +5°C° 0.1 mm 5 mps 747 mmHg 43%
14:00 +6°C° 0.1 mm 5 mps 747 mmHg 43%
15:00 +6°C° 0.1 mm 5 mps 747 mmHg 42%
16:00 +6°C° 0.1 mm 5 mps 747 mmHg 42%
17:00 +6°C° 0.1 mm 5 mps 747 mmHg 42%
18:00 +4°C° 0.1 mm 4 mps 747 mmHg 51%
19:00 +3°C° 0.1 mm 4 mps 747 mmHg 60%
20:00 +1°C° 0.1 mm 3 mps 746 mmHg 69%
21:00 +1°C° 0.1 mm 3 mps 746 mmHg 74%
22:00 +1°C° 0.1 mm 3 mps 746 mmHg 79%
23:00 0°C° 0.1 mm 3 mps 746 mmHg 83%

26 April, Monday

Time Temperature Precipitation Wind Pressure Humidity
00:00 0°C° 0 mm 3 mps 746 mmHg 85%
01:00 0°C° 0 mm 3 mps 746 mmHg 87%
02:00 -1°C° 0 mm 2 mps 746 mmHg 89%
03:00 -1°C° 0 mm 2 mps 746 mmHg 91%
04:00 -2°C° 0 mm 2 mps 746 mmHg 92%
05:00 -3°C° 0 mm 2 mps 746 mmHg 93%
06:00 -2°C° 0 mm 3 mps 746 mmHg 82%
07:00 0°C° 0 mm 3 mps 747 mmHg 71%
08:00 +1°C° 0 mm 3 mps 747 mmHg 60%
09:00 +1°C° 0 mm 4 mps 747 mmHg 55%
10:00 +4°C° 0 mm 4 mps 746 mmHg 49%
11:00 +5°C° 0 mm 4 mps 746 mmHg 43%
12:00 +5°C° 0.1 mm 5 mps 746 mmHg 43%
13:00 +6°C° 0.1 mm 5 mps 746 mmHg 43%
14:00 +6°C° 0.1 mm 5 mps 745 mmHg 43%
15:00 +6°C° 0.1 mm 5 mps 745 mmHg 44%
16:00 +6°C° 0.1 mm 5 mps 744 mmHg 44%
17:00 +6°C° 0.1 mm 5 mps 744 mmHg 45%
18:00 +4°C° 0 mm 4 mps 744 mmHg 53%
19:00 +3°C° 0 mm 3 mps 744 mmHg 61%
20:00 +3°C° 0 mm 2 mps 744 mmHg 70%
21:00 +2°C° 0 mm 2 mps 744 mmHg 73%
22:00 +1°C° 0 mm 2 mps 744 mmHg 76%
23:00 +1°C° 0 mm 2 mps 744 mmHg 79%

27 April, Tuesday

Time Temperature Precipitation Wind Pressure Humidity
00:00 -1°C° 0 mm 2 mps 744 mmHg 80%
01:00 -1°C° 0 mm 2 mps 744 mmHg 82%
02:00 -2°C° 0 mm 2 mps 744 mmHg 84%
03:00 -2°C° 0 mm 2 mps 744 mmHg 84%
04:00 -2°C° 0 mm 2 mps 744 mmHg 84%
05:00 -2°C° 0 mm 2 mps 744 mmHg 84%
06:00 -1°C° 0 mm 2 mps 744 mmHg 77%
07:00 +2°C° 0 mm 2 mps 744 mmHg 70%
08:00 +4°C° 0 mm 2 mps 744 mmHg 63%
09:00 +5°C° 0 mm 2 mps 744 mmHg 56%
10:00 +7°C° 0 mm 3 mps 744 mmHg 50%
11:00 +8°C° 0 mm 3 mps 744 mmHg 44%
12:00 +9°C° 0 mm 2 mps 744 mmHg 43%
13:00 +10°C° 0 mm 2 mps 743 mmHg 42%
14:00 +10°C° 0 mm 2 mps 743 mmHg 41%
15:00 +12°C° 0 mm 2 mps 743 mmHg 42%
16:00 +12°C° 0 mm 1 mps 743 mmHg 42%
17:00 +12°C° 0 mm 1 mps 742 mmHg 42%
18:00 +10°C° 0 mm 1 mps 742 mmHg 47%
19:00 +8°C° 0 mm 2 mps 742 mmHg 53%
20:00 +7°C° 0 mm 2 mps 742 mmHg 58%
21:00 +6°C° 0 mm 2 mps 742 mmHg 60%
22:00 +5°C° 0 mm 3 mps 741 mmHg 62%
23:00 +4°C° 0 mm 3 mps 741 mmHg 64%

28 April, Wednesday

Time Temperature Precipitation Wind Pressure Humidity
00:00 +4°C° 0 mm 3 mps 741 mmHg 65%
01:00 +4°C° 0 mm 3 mps 740 mmHg 66%
02:00 +4°C° 0 mm 4 mps 740 mmHg 67%
03:00 +4°C° 0 mm 4 mps 739 mmHg 67%
04:00 +4°C° 0 mm 4 mps 739 mmHg 66%
05:00 +4°C° 0 mm 4 mps 738 mmHg 66%
06:00 +4°C° 0.1 mm 4 mps 738 mmHg 70%
07:00 +4°C° 0.1 mm 4 mps 738 mmHg 73%
08:00 +5°C° 0.1 mm 4 mps 737 mmHg 76%
09:00 +5°C° 0.7 mm 4 mps 737 mmHg 82%
10:00 +5°C° 0.7 mm 4 mps 737 mmHg 88%
11:00 +4°C° 0.7 mm 4 mps 736 mmHg 93%
12:00 +5°C° 0.2 mm 4 mps 736 mmHg 93%
13:00 +5°C° 0.2 mm 4 mps 736 mmHg 93%
14:00 +7°C° 0.2 mm 3 mps 735 mmHg 93%
15:00 +7°C° 0.1 mm 3 mps 735 mmHg 93%
16:00 +8°C° 0.1 mm 3 mps 735 mmHg 94%
17:00 +8°C° 0.1 mm 2 mps 735 mmHg 95%
18:00 +8°C° 1.1 mm 3 mps 735 mmHg 95%
19:00 +7°C° 1.1 mm 3 mps 735 mmHg 96%
20:00 +7°C° 1.1 mm 3 mps 735 mmHg 97%
21:00 +6°C° 0.1 mm 4 mps 735 mmHg 96%
22:00 +6°C° 0.1 mm 4 mps 735 mmHg 96%
23:00 +6°C° 0.1 mm 4 mps 735 mmHg 95%
Show more